DW8522 Weather Reports


Display with metric or nautical units.
time (UTC)temp
F
wind
direction
speed
MPH
gust
MPH
rain 1hr
in
rain 24hr
in
rain mn
in
humidity
%
barometer
mb
20240530004549 59 129 2.0 8.0 0.00 0.00 0.00 69 1017.4
20240530003046 59 208 5.0 12.0 0.00 0.00 0.00 68 1017.4
20240530001537 59 233 2.0 9.0 0.00 0.00 0.00 69 1017.4
20240530000040 59 258 1.0 6.0 0.00 0.00 0.00 68 1017.6
20240529234536 58 249 2.0 9.0 0.00 0.00 0.00 67 1017.8
20240529233029 58 308 1.0 11.0 0.00 0.00 0.00 69 1017.7
20240529231525 58 183 3.0 11.0 0.00 0.00 0.00 68 1017.8
20240529230024 58 88 0.0 6.0 0.00 0.00 0.00 70 1017.9
20240529224533 57 222 1.0 7.0 0.00 0.08 0.00 71 1017.8
20240529223013 56 221 5.0 10.0 0.00 0.08 0.00 72 1017.7
20240529221508 55 23 2.0 12.0 0.00 0.08 0.00 74 1017.8
20240529220007 55 11 5.0 14.0 0.00 0.08 0.00 73 1017.6
20240529214504 54 190 4.0 9.0 0.00 0.08 0.00 74 1017.5
20240529213002 53 115 0.0 3.0 0.00 0.08 0.00 77 1017.4
20240529211607 53 120 1.0 2.0 0.00 0.08 0.00 77 1017.2
20240529210056 51 19 0.0 2.0 0.00 0.08 0.00 80 1016.9
20240529204606 49 94 0.0 1.0 0.00 0.08 0.00 82 1016.9
20240529203051 48 105 0.0 4.0 0.00 0.08 0.00 83 1016.8
20240529201548 48 278 0.0 1.0 0.00 0.08 0.00 85 1016.6
20240529200046 47 278 0.0 1.0 0.00 0.08 0.00 85 1016.3
20240529194548 47 271 0.0 3.0 0.00 0.08 0.00 85 1016.0
20240529193042 47 74 0.0 3.0 0.00 0.08 0.00 85 1015.7
20240529191554 47 283 1.0 5.0 0.00 0.08 0.00 84 1015.6
20240529190038 47 266 3.0 6.0 0.00 0.08 0.00 83 1015.5
20240529184536 47 250 3.0 6.0 0.00 0.08 0.00 84 1015.1
20240529183034 47 252 2.0 8.0 0.00 0.08 0.00 83 1014.7
20240529181532 47 34 4.0 9.0 0.00 0.08 0.00 83 1014.6
20240529180035 47 284 4.0 8.0 0.00 0.08 0.00 83 1014.4
20240529174528 46 295 2.0 6.0 0.00 0.08 0.00 86 1014.2
20240529173034 46 99 0.0 2.0 0.00 0.08 0.00 84 1013.7
20240529171520 46 99 0.0 1.0 0.00 0.08 0.00 82 1013.7
20240529170017 47 65 0.0 1.0 0.00 0.08 0.00 81 1013.4
20240529164512 48 65 0.0 1.0 0.00 0.08 0.00 80 1013.4
20240529163010 48 89 1.0 4.0 0.00 0.08 0.00 79 1013.3
20240529161506 49 276 1.0 5.0 0.00 0.08 0.00 79 1013.0
20240529160005 49 40 1.0 5.0 0.00 0.08 0.00 79 1012.7
20240529154504 49 257 0.0 3.0 0.00 0.08 0.00 79 1012.4
20240529153123 50 191 2.0 8.0 0.00 0.08 0.00 79 1012.2
20240529151558 50 136 4.0 13.0 0.00 0.08 0.00 78 1012.0
20240529150056 50 271 4.0 11.0 0.00 0.08 0.00 79 1011.7
20240529144603 49 176 2.0 7.0 0.00 0.08 0.00 79 1011.5
20240529143051 49 238 3.0 9.0 0.00 0.08 0.00 79 1011.2
20240529141548 49 179 1.0 7.0 0.00 0.08 0.00 79 1011.2
20240529140106 49 97 1.0 6.0 0.00 0.08 0.00 80 1010.9
20240529134559 49 119 2.0 8.0 0.00 0.08 0.00 79 1010.8
20240529133041 49 217 3.0 10.0 0.00 0.08 0.00 80 1010.5
20240529131537 49 235 5.0 11.0 0.00 0.08 0.00 79 1010.1
20240529130035 49 134 3.0 10.0 0.00 0.08 0.00 77 1010.1
20240529124531 50 157 1.0 7.0 0.00 0.08 0.00 76 1009.7
20240529123028 50 110 2.0 9.0 0.00 0.08 0.00 75 1009.7
20240529121526 50 295 3.0 10.0 0.00 0.08 0.00 74 1009.5
20240529120022 50 111 5.0 12.0 0.00 0.08 0.00 73 1009.3
20240529114528 50 269 2.0 12.0 0.00 0.08 0.08 73 1008.9
20240529113018 50 219 4.0 14.0 0.00 0.08 0.08 73 1008.8
20240529111517 50 309 2.0 12.0 0.00 0.08 0.08 73 1008.6
20240529110015 50 193 3.0 8.0 0.00 0.08 0.08 74 1008.1
20240529104512 49 241 4.0 9.0 0.00 0.09 0.08 75 1008.0
20240529103011 49 214 3.0 16.0 0.00 0.09 0.08 76 1007.6
20240529101509 49 115 2.0 8.0 0.00 0.09 0.08 76 1007.3
20240529100007 49 236 3.0 8.0 0.00 0.09 0.08 76 1007.0
20240529094507 50 307 4.0 11.0 0.00 0.09 0.08 75 1006.9
20240529093004 50 127 3.0 8.0 0.00 0.09 0.08 75 1006.6
20240529091508 50 238 3.0 10.0 0.00 0.09 0.08 75 1006.1
20240529090002 50 321 4.0 11.0 0.00 0.09 0.08 75 1006.1
20240529084502 50 115 3.0 14.0 0.00 0.09 0.08 76 1005.9
20240529083002 50 160 2.0 9.0 0.00 0.09 0.08 76 1005.5
20240529081502 51 47 4.0 11.0 0.00 0.09 0.08 75 1005.1
20240529080100 51 228 4.0 11.0 0.00 0.09 0.08 75 1004.8
20240529074559 51 347 4.0 15.0 0.00 0.09 0.08 76 1004.5
20240529073058 51 271 4.0 13.0 0.00 0.09 0.08 78 1004.1
20240529071615 50 132 3.0 13.0 0.00 0.09 0.08 80 1003.8
20240529070057 50 251 5.0 10.0 0.00 0.09 0.08 80 1003.5
20240529064556 50 125 1.0 9.0 0.00 0.09 0.08 80 1003.4
20240529063106 50 224 1.0 7.0 0.00 0.09 0.08 80 1003.4
20240529061555 50 158 4.0 9.0 0.00 0.09 0.08 80 1003.0
20240529060058 49 281 1.0 6.0 0.00 0.09 0.08 81 1002.9
20240529054554 49 270 2.0 8.0 0.00 0.09 0.08 81 1002.5
20240529053053 49 115 0.0 4.0 0.00 0.09 0.08 79 1002.5
20240529051620 49 90 2.0 9.0 0.00 0.09 0.08 79 1002.4
20240529050052 49 205 3.0 16.0 0.00 0.09 0.08 79 1002.4
20240529044557 49 226 4.0 16.0 0.00 0.09 0.08 79 1002.4
20240529043051 49 234 4.0 11.0 0.00 0.09 0.08 79 1002.2
20240529041602 49 130 5.0 19.0 0.00 0.09 0.08 81 1002.0
20240529040051 49 288 9.0 26.0 0.00 0.09 0.08 83 1002.4
20240529035017 52 179 11.0 25.0 0.00 0.09 0.08 78 1002.6
20240529031022 53 255 6.0 13.0 0.00 0.09 0.08 75 1001.6
20240529015438 56 222 7.0 22.0 0.00 0.09 0.08 67 1002.1
20240529011313 55 281 6.0 23.0 0.00 0.09 0.08 69 1002.2